Wind_Speed
16 16 16 16 17 18 18 18 18 19 19 20 19 19 20 20 21 21 21 21 22 22 23 23 24 24 25 25 26 26 26 26 27 27 28 28 29 29
18 18 19 19 20 21 21 21 21 21 22 23 22 22 23 22 23 23 24 25 25 25 26 26 27 27 28 29 29 30 30 30 31 31 31 32 32 32
19 19 20 21 22 22 22 23 23 24 24 25 24 24 25 26 26 26 26 26 27 27 28 29 29 30 31 32 32 33 33 34 34 35 35 35 36 36
20 21 22 22 23 23 24 25 25 25 26 27 27 27 27 28 29 29 29 29 29 30 31 31 32 32 33 34 34 35 35 37 37 38 38 38 39 39
23 24 24 24 24 25 25 26 27 28 28 30 30 30 30 31 31 32 33 33 33 33 33 34 34 35 35 36 36 37 38 39 40 41 42 42 42 42
24 25 26 27 26 27 27 28 29 30 30 31 31 31 32 32 33 34 35 35 36 35 35 36 36 37 38 39 39 41 42 42 43 44 44 45 45 45
25 26 27 29 29 29 29 30 31 32 33 33 33 33 34 35 35 35 36 37 37 37 38 39 39 40 41 42 43 43 44 45 46 46 47 47 48 49
26 27 29 30 31 31 31 32 33 33 34 34 35 35 35 36 37 37 38 39 39 40 40 42 43 44 44 45 45 45 46 47 48 49 50 51 52 53
27 29 30 30 31 32 33 34 34 34 34 34 35 35 37 38 39 39 40 41 41 42 42 43 45 46 47 48 49 49 50 50 51 52 53 54 55 56
29 30 30 30 31 32 33 34 34 34 34 35 36 37 38 39 39 40 41 41 42 43 43 45 46 48 49 51 52 52 53 54 54 55 56 57 58 59
29 30 30 30 30 32 33 34 34 34 34 35 36 37 39 40 41 41 41 43 44 45 46 47 48 49 50 52 53 54 55 56 57 58 59 59 60 60
28 28 30 30 31 33 34 35 35 35 35 36 37 38 39 39 41 42 43 45 46 47 47 49 50 51 51 52 53 55 56 56 57 57 58 59 59 59
28 29 30 30 31 33 34 35 35 36 37 38 39 39 40 41 42 43 45 46 47 48 49 50 51 51 52 52 53 55 56 56 57 57 58 58 58 58
29 30 31 32 32 33 34 35 36 37 38 39 40 40 41 42 44 45 46 47 48 49 49 50 50 51 51 52 52 53 53 54 55 55 55 54 54 54
31 32 33 33 33 35 35 36 37 38 38 39 40 41 43 43 44 45 46 47 48 48 48 49 49 49 50 50 50 50 50 51 51 51 51 51 51 50
33 34 34 34 34 35 36 36 37 38 39 40 41 43 43 43 44 44 45 46 46 46 47 46 46 46 46 46 47 47 48 48 48 48 47 47 46 46
33 34 35 35 35 35 36 38 39 41 41 42 42 42 42 43 43 43 44 44 45 45 45 44 44 44 44 44 44 44 44 44 44 43 42 42 42 42
33 34 35 36 37 37 38 38 39 39 40 41 41 41 42 42 42 43 43 43 43 43 42 42 41 41 41 42 43 42 42 41 40 39 39 38 37 38
34 35 36 36 37 38 38 38 38 39 39 39 40 40 40 40 40 41 41 40 40 40 39 39 39 39 39 39 39 39 38 37 36 35 35 34 34 33
35 36 36 36 36 35 36 37 37 37 38 38 38 38 38 38 38 38 38 37 37 37 37 37 37 37 37 36 36 35 35 34 33 32 32 32 32 31
35 35 34 34 33 34 35 35 35 35 36 36 36 36 36 37 36 36 36 36 35 35 35 36 35 35 35 35 34 33 33 33 32 31 31 31 30 29
33 32 32 32 32 32 32 32 33 34 34 34 34 35 35 35 35 34 34 34 34 34 34 34 34 33 33 33 32 31 31 31 31 31 31 30 29 29
30 30 30 30 30 30 30 31 32 32 32 33 33 33 33 33 33 33 33 33 33 32 32 31 32 31 31 31 31 31 30 29 29 29 29 29 28 28
Wind_Direction
257 258 259 264 269 272 275 278 280 283 284 284 284 286 287 287 288 288 286 286 285 284 283 282 282 282 282 282 282 282 282 282 281 281 280 279 279 278
259 260 262 266 271 273 274 277 280 282 284 284 285 285 285 287 285 285 284 285 285 283 282 281 281 281 281 280 280 281 280 280 280 280 280 279 278 278
262 266 269 271 273 273 274 277 279 281 283 284 285 286 286 286 285 285 286 286 285 284 283 283 282 282 282 281 280 280 280 279 279 279 279 278 278 278
266 268 270 272 276 275 275 277 279 281 282 283 285 284 285 286 286 285 284 284 283 284 284 283 283 283 283 282 282 280 280 279 279 279 279 279 279 279
267 269 270 273 275 275 275 277 279 280 281 282 284 284 284 284 284 285 285 285 284 283 282 282 282 283 283 282 282 281 281 281 280 279 278 278 278 278
270 271 271 272 275 276 279 280 280 281 282 283 284 284 284 284 285 285 285 285 285 285 285 284 283 283 282 282 283 283 282 281 281 280 279 278 278 278
272 273 276 276 276 278 279 280 282 283 282 282 283 283 284 285 285 285 285 285 285 287 287 286 286 285 283 283 283 283 282 282 281 281 280 279 278 278
276 278 280 280 279 280 281 282 283 284 284 283 283 284 285 285 285 286 285 285 286 287 287 287 288 287 286 284 284 284 283 282 282 281 280 280 279 279
279 280 282 283 282 282 284 285 286 286 287 286 284 286 287 287 287 287 287 286 286 287 288 288 289 289 288 287 286 285 285 284 283 282 281 280 280 279
280 282 283 284 284 285 287 286 286 287 289 288 287 287 288 288 288 288 288 288 289 290 290 290 289 289 289 288 287 286 286 285 284 283 282 281 280 279
282 282 284 286 286 287 288 287 287 287 288 289 289 290 290 290 290 289 289 289 290 291 291 290 290 290 289 288 287 287 287 286 285 284 283 282 281 280
284 284 285 286 286 287 287 288 289 289 289 289 290 291 292 292 292 292 292 292 292 293 293 292 290 289 289 288 288 288 287 287 286 285 284 284 283 282
286 287 287 289 290 289 289 290 290 290 291 292 293 293 294 294 294 295 295 295 295 294 294 293 292 291 290 290 289 289 289 289 288 287 286 285 284 282
289 289 289 291 292 293 292 292 292 292 293 294 294 294 295 295 296 296 296 296 296 296 295 295 294 294 293 292 292 291 291 291 291 290 289 288 286 284
289 290 292 291 292 294 294 294 294 294 294 295 295 296 296 296 296 297 297 297 298 297 297 296 296 296 295 294 294 294 294 294 294 293 292 290 289 287
290 292 294 293 294 295 295 295 295 295 295 296 296 297 297 297 297 298 299 299 299 299 298 298 297 298 297 297 297 296 296 296 295 295 294 292 291 289
292 293 293 294 295 295 296 296 296 297 297 298 299 299 300 300 301 301 302 302 302 302 301 300 300 300 300 300 300 300 299 299 298 297 296 294 293 291
293 293 293 294 295 296 297 298 299 299 299 300 301 301 302 303 304 304 305 305 305 304 304 303 303 303 303 303 303 303 303 302 301 299 298 296 294 293
295 295 295 295 296 296 297 298 299 300 301 302 303 304 304 305 306 306 307 308 308 308 307 306 306 306 306 306 306 306 306 305 303 302 300 299 298 296
296 296 296 296 297 298 300 300 301 302 303 304 305 306 307 307 308 309 310 311 311 311 310 310 309 309 310 310 310 309 308 308 307 305 304 303 303 301
297 297 297 297 298 299 301 302 303 304 306 307 307 307 309 310 311 311 311 312 312 312 312 312 312 312 313 313 313 312 311 311 310 309 307 306 305 303
298 298 299 299 300 301 303 304 305 306 307 308 309 310 311 312 313 313 313 313 314 314 314 315 315 315 315 315 315 315 313 312 312 311 310 308 307 305
300 301 302 302 303 304 306 307 308 309 310 311 312 312 314 315 315 315 316 316 316 317 317 318 318 318 318 319 318 317 316 315 314 313 312 311 310 308
Height
5878 5879 5879 5880 5880 5880 5880 5880 5881 5880 5879 5879 5878 5878 5877 5876 5875 5874 5874 5873 5872 5871 5870 5869 5869 5868 5867 5866 5865 5864 5863 5862 5862 5861 5860 5859 5859 5858
5875 5875 5875 5876 5876 5876 5876 5876 5875 5875 5874 5873 5873 5873 5871 5870 5870 5869 5868 5867 5866 5865 5864 5863 5862 5861 5860 5859 5858 5857 5856 5855 5854 5853 5852 5851 5850 5850
5870 5871 5871 5871 5871 5871 5871 5870 5870 5870 5869 5868 5867 5867 5865 5864 5863 5862 5861 5861 5859 5857 5856 5855 5854 5853 5852 5851 5849 5848 5847 5846 5845 5844 5843 5842 5841 5840
5866 5866 5866 5866 5866 5865 5865 5865 5864 5864 5863 5862 5861 5860 5859 5857 5856 5855 5854 5853 5852 5850 5849 5848 5846 5844 5843 5842 5840 5839 5837 5836 5835 5834 5832 5831 5830 5829
5861 5861 5861 5861 5860 5860 5859 5858 5858 5857 5856 5855 5854 5853 5851 5850 5848 5847 5845 5844 5843 5842 5840 5839 5837 5835 5833 5832 5830 5828 5827 5825 5824 5822 5821 5820 5818 5817
5855 5855 5855 5854 5854 5853 5852 5851 5850 5850 5849 5847 5846 5845 5843 5842 5840 5838 5837 5835 5833 5832 5831 5829 5827 5825 5823 5821 5819 5817 5815 5813 5811 5810 5808 5807 5805 5804
5849 5849 5848 5848 5847 5846 5845 5844 5843 5842 5841 5839 5838 5836 5835 5833 5831 5829 5827 5825 5823 5821 5820 5818 5816 5814 5812 5810 5808 5805 5803 5800 5798 5796 5794 5793 5791 5789
5842 5842 5841 5840 5839 5838 5837 5836 5835 5833 5832 5830 5829 5827 5825 5823 5821 5819 5817 5815 5813 5811 5809 5806 5804 5801 5799 5797 5794 5792 5789 5786 5784 5782 5779 5777 5775 5774
5835 5835 5834 5833 5832 5831 5829 5828 5826 5825 5823 5821 5819 5818 5816 5814 5811 5809 5806 5804 5801 5799 5797 5794 5791 5788 5785 5782 5780 5777 5774 5771 5769 5766 5763 5761 5759 5756
5828 5827 5826 5825 5824 5823 5821 5819 5818 5816 5814 5812 5810 5808 5806 5803 5801 5798 5795 5792 5790 5787 5785 5782 5778 5775 5771 5767 5764 5761 5758 5755 5752 5748 5746 5743 5740 5738
5821 5820 5818 5817 5816 5814 5813 5811 5809 5807 5805 5802 5800 5798 5795 5792 5789 5787 5784 5781 5778 5775 5772 5768 5764 5761 5756 5752 5748 5744 5741 5737 5734 5730 5727 5724 5721 5718
5813 5812 5811 5809 5808 5806 5804 5802 5800 5798 5795 5793 5790 5787 5784 5781 5778 5775 5771 5768 5764 5761 5757 5753 5749 5745 5742 5736 5731 5727 5723 5719 5716 5712 5708 5704 5701 5698
5806 5804 5803 5801 5799 5797 5795 5793 5790 5788 5785 5782 5780 5777 5773 5770 5766 5762 5758 5755 5750 5746 5742 5738 5734 5729 5725 5721 5715 5710 5705 5701 5697 5693 5688 5685 5681 5677
5799 5797 5794 5792 5790 5788 5785 5783 5780 5777 5774 5771 5768 5765 5762 5758 5754 5750 5745 5741 5736 5732 5727 5722 5718 5713 5708 5704 5699 5694 5688 5683 5678 5674 5670 5665 5661 5658
5790 5788 5786 5783 5781 5778 5776 5773 5770 5767 5763 5760 5757 5753 5749 5745 5741 5737 5732 5727 5722 5717 5712 5707 5703 5697 5692 5687 5683 5678 5673 5667 5662 5657 5653 5648 5643 5640
5781 5779 5777 5774 5772 5769 5766 5763 5760 5756 5753 5749 5746 5742 5737 5733 5728 5724 5719 5714 5709 5703 5698 5693 5688 5683 5678 5672 5667 5662 5657 5652 5647 5642 5637 5632 5628 5624
5772 5770 5768 5765 5762 5759 5756 5753 5749 5746 5742 5738 5734 5729 5725 5720 5716 5711 5706 5700 5695 5690 5684 5679 5674 5669 5663 5659 5654 5648 5643 5638 5633 5628 5623 5619 5614 5610
5764 5761 5759 5755 5752 5749 5746 5742 5739 5734 5731 5726 5722 5718 5713 5708 5703 5698 5693 5688 5682 5677 5671 5666 5662 5657 5651 5645 5641 5636 5630 5625 5620 5615 5611 5607 5603 5598
5754 5751 5748 5745 5742 5739 5735 5732 5728 5724 5720 5716 5711 5706 5702 5697 5692 5687 5682 5676 5671 5665 5660 5655 5650 5646 5641 5636 5629 5624 5619 5614 5609 5605 5600 5596 5592 5588
5745 5742 5739 5735 5732 5729 5725 5722 5718 5714 5710 5705 5701 5696 5691 5687 5682 5676 5671 5666 5661 5656 5650 5645 5640 5635 5630 5626 5620 5614 5609 5604 5600 5595 5591 5587 5582 5578
5736 5733 5729 5726 5722 5719 5715 5712 5708 5704 5699 5695 5691 5686 5682 5677 5672 5667 5662 5657 5652 5647 5642 5637 5631 5626 5621 5616 5611 5606 5601 5595 5591 5586 5582 5578 5575 5571
5727 5724 5720 5716 5713 5709 5706 5702 5699 5695 5690 5686 5682 5677 5672 5668 5663 5658 5653 5648 5643 5638 5633 5628 5623 5618 5613 5608 5603 5598 5593 5588 5583 5578 5574 5570 5566 5562
5718 5715 5711 5708 5704 5701 5697 5694 5690 5686 5682 5678 5673 5669 5664 5659 5654 5650 5645 5640 5635 5631 5626 5621 5616 5610 5605 5600 5595 5590 5586 5581 5576 5572 5568 5563 5559 5555